Regional Weather Roundup
Issued by NWS Sioux Falls, SD

Home | Current Version | Previous Version | Text Only | Print | Product List | Glossary On
Versions: 1 2 3 4 5 6 7 8 9 10 11 12 13 14 15 16 17 18 19 20 21 22 23 24 25 26 27 28 29 30 31 32 33 34 35 36 37 38 39 40 41 42 43 44 45 46 47 48 49 50
000
ASUS43 KFSD 192310
RWRFSD

WEATHER ROUNDUP FOR SE SOUTH DAKOTA/SW MINNESOTA/NW IOWA
NATIONAL WEATHER SERVICE SIOUX FALLS SD
600 PM CDT THU OCT 19 2017

NOTE: "FAIR" INDICATES FEW OR NO CLOUDS BELOW 12,000 FEET WITH NO
SIGNIFICANT WEATHER AND OR OBSTRUCTIONS TO VISIBILITY.


SDZ038>040-050-052>070-200000-
SOUTHEAST SOUTH DAKOTA

CITY           SKY/WX    TMP DP  RH WIND       PRES   REMARKS
BROOKINGS      CLEAR     69  50  50 S17       29.86F
CHAMBERLAIN    CLEAR     79  47  32 S12       29.79S
HURON          CLEAR     74  46  36 S12       29.80F
MADISON        FAIR      68  48  49 S18       29.87S
MITCHELL       CLEAR     76  45  33 S15       29.83S
SIOUX FALLS    CLEAR     72  52  49 S13       29.89F
WINNER         FAIR      80  42  25 S20G26    29.79F
YANKTON        CLEAR     74  51  44 SE14      29.88F
$$

MNZ071-072-080-081-089-090-097-098-200000-
SOUTHWEST MINNESOTA

CITY           SKY/WX    TMP DP  RH WIND       PRES   REMARKS
FAIRMONT       CLEAR     68  44  42 S13       29.96F
JACKSON        PTCLDY    68  41  37 S10G17    29.96F
LUVERNE        CLEAR     70  43  37 S10       29.92S
MARSHALL       CLEAR     72  47  40 S14       29.87S
MONTEVIDEO     CLEAR     73  45  35 SW9G17    29.85S
PIPESTONE      CLEAR     70  45  40 S13       29.90S
REDWOOD FALLS  CLEAR     71  42  35 S17G25    29.89F
TRACY          CLEAR     72  47  41 S15       29.89S
WORTHINGTON    CLEAR     70  46  42 S12G17    29.94F
$$

IAZ001>003-012>014-020>022-031-032-NEZ013-014-SDZ071-200000-
NORTHWEST IOWA

CITY           SKY/WX    TMP DP  RH WIND       PRES   REMARKS
CHEROKEE       CLEAR     71  52  51 S7        29.96S
DENISON        CLEAR     73  54  49 S9        29.99S
ESTHERVILLE    CLEAR     68  45  43 S9        29.96F
LE MARS        CLEAR     73  50  43 S12       29.93F
ORANGE CITY    CLEAR     73  52  46 S9        29.94F
SHELDON        CLEAR     72  46  40 S9G16     29.92F
SIOUX CITY     CLEAR     73  53  49 S9        29.94F
SPENCER        CLEAR     70  48  45 S10       29.96F
STORM LAKE     CLEAR     72  50  46 S12       29.97F
$$

ABBREVIATIONS USED IN REMARKS
   TC - TEMPERATURE IN CELSIUS
  WCI - WIND CHILL INDEX
   HX - HEAT INDEX
  VSB - VISIBILITY





USA.gov is the U.S. government's official web portal to all federal, state and local government web resources and services.